Vertical_Velocity
-0 -1 -0 2 4 -3 2 3 -7 1 -1 -3 3 -4 -0 4 1 2 3 -0 -1 -3 -1 1 1 0 1 1 2 3 3 1 2 0 0 3 2 3 3 4 2 -1 -1 -1 -0 -0 1 0 -4
-1 -0 0 0 4 -6 -2 -0 -1 -1 3 2 4 6 4 -0 5 3 2 1 2 3 2 0 -1 -0 -0 -0 0 -0 0 1 0 1 -1 3 0 1 3 3 2 1 1 -2 -1 -2 -1 3 -1
1 -1 3 4 6 -8 -1 -4 -2 -1 0 -2 3 8 5 2 -3 1 2 2 2 0 1 1 1 -0 1 1 0 -1 -0 -0 0 1 2 4 1 -1 -0 1 3 2 1 -0 -1 -1 -2 -1 1
0 -2 2 5 1 -4 -2 -3 -4 1 3 -1 0 1 -2 0 1 1 1 0 -1 -1 -1 -2 -1 -2 -2 -1 1 -0 0 -0 -1 -1 -1 -1 0 1 0 0 2 3 2 2 -1 -1 -2 -3 -3
1 -0 3 6 -8 -4 -5 0 -5 -2 0 4 5 2 0 -0 2 0 1 1 1 -0 -1 0 1 1 1 1 1 1 2 1 0 -0 -0 0 1 1 -0 -0 0 2 2 2 0 -1 0 -1 -4
1 -1 0 -9 -2 -13 -4 -3 2 2 -1 -3 -8 0 0 2 0 -0 -1 0 1 -2 -1 -1 -1 -1 0 1 0 -1 -0 0 -0 -1 -2 -0 0 1 1 2 2 1 2 1 2 -1 -2 0 -3
-0 1 -5 -3 -0 -0 -5 -6 -2 -2 2 6 2 0 -1 -3 1 2 1 1 1 1 -1 -1 -1 1 -0 -1 -1 -1 -1 -2 -1 -3 -2 -2 -1 -0 -1 1 1 1 1 2 2 2 -0 -1 -2
2 -3 -4 -3 -0 -1 -3 -4 -4 -5 2 1 -2 -3 -2 -1 1 2 1 2 0 2 -1 2 0 -0 -1 -2 1 1 -1 -2 -1 -2 -1 -2 -1 -1 -2 -0 0 2 3 3 3 3 0 -2 -2
-2 -2 -6 -1 5 -5 0 0 1 0 0 -1 -1 -4 -3 -2 -2 -1 1 2 1 -1 -2 1 2 -0 1 1 -3 -0 -1 -1 -2 -3 -1 -2 -3 -3 -1 3 2 1 1 2 2 3 2 0 -1
-3 -6 -3 3 -2 2 4 4 4 0 2 0 0 -2 0 -1 -1 -0 1 -1 -0 2 2 -2 2 -2 1 -2 1 -2 1 -0 -2 -4 -1 0 1 0 -3 -1 -1 -2 -2 -0 0 2 3 1 -1
-6 -3 2 -4 4 1 0 -2 1 -1 0 -2 -2 0 0 -2 -1 -3 -2 0 -2 -2 3 -1 -3 3 4 -1 -1 -2 -0 1 2 -4 -5 -3 1 -0 -2 -4 0 -1 1 -0 2 3 1 2 0
-3 -3 4 2 -1 -3 1 1 1 0 -1 -3 -2 -1 2 1 0 0 -0 -3 -2 3 3 -2 -2 -2 -3 3 7 4 4 -1 1 2 -3 -5 2 4 0 1 -1 -1 -4 3 -2 2 3 3 4
2 3 5 5 2 -2 -1 1 1 -3 0 -4 -6 -3 1 2 -3 3 3 0 2 1 -3 -5 -0 0 -2 -5 -6 -2 -1 3 7 3 0 -1 -0 1 2 5 1 -1 0 -0 0 0 1 -1 1
6 4 4 2 2 5 -0 -11 -2 2 1 0 1 1 1 -3 -2 -0 1 3 2 1 -1 -4 -3 -1 -3 -3 -4 -4 -4 -4 -5 -4 0 1 -1 -1 -2 -1 2 1 -0 -2 -1 -1 2 1 -0
-1 -1 -1 1 4 -0 -1 1 -2 2 1 -1 1 1 0 -2 1 2 -2 3 -3 2 -2 -3 -2 -0 0 2 2 -3 -4 -4 -2 -3 -2 -1 -0 -2 -2 -1 1 1 1 2 2 0 -2 -2 -1
-2 -1 2 2 3 -4 4 0 -2 -1 -2 -4 -1 -2 1 -5 -5 -7 3 2 4 -0 -5 -3 -2 -1 -4 -3 -3 -2 1 0 -1 -1 -1 0 -1 2 -1 -2 -2 -3 1 -1 2 -0 0 3 -0
2 1 -2 -0 0 2 0 11 -0 0 0 1 -1 4 2 6 -1 -3 -1 -2 -1 0 3 -2 -4 -6 -2 -2 -3 -4 -2 -3 -4 -4 -0 -1 -1 1 1 3 1 1 -0 -1 -0 0 1 -1 1
0 2 -0 -2 -5 1 -1 6 0 -3 -1 -2 -3 0 -2 -2 -3 -0 -3 3 2 -1 -2 -1 1 -1 -1 -0 -3 -4 -1 -1 -1 -1 0 0 -2 -2 -4 -1 1 -5 -1 -2 0 0 -1 -1 3
-2 4 -1 1 -2 -3 -3 0 1 -7 -1 -4 -4 -4 -2 -2 3 7 -0 -6 -7 2 -2 -3 4 5 1 1 3 1 -1 0 2 -0 1 2 5 2 1 0 -0 -2 1 -0 -3 -3 -2 -1 -2
-2 -2 0 -3 -4 -9 -1 4 -2 3 -1 -6 -0 -2 3 -0 1 1 2 6 6 -3 -6 -6 -4 -2 -2 -5 -4 0 -1 -0 -1 -2 -2 -2 -3 -1 0 4 6 0 -1 3 1 -2 0 0 -1
0 -9 2 2 2 -3 2 -5 6 0 -6 -5 -1 1 -0 -3 -3 -3 -0 1 -1 -0 0 -1 -3 -4 -4 -3 -4 -5 -2 -1 -1 -6 -6 -3 -1 -3 -1 -1 -1 2 5 2 -2 -1 -2 2 3
0 -7 0 -3 -2 3 -11 -3 -9 3 0 -1 3 4 0 -1 -3 -6 -1 3 2 1 -3 -2 -1 0 0 -2 1 3 3 5 5 5 3 -2 -1 -5 -3 -5 -3 -4 -3 -1 4 2 2 -1 5
2 7 6 2 1 -0 9 -2 -9 -2 -4 0 -2 -2 -2 -4 -1 3 0 0 -2 -3 -0 -1 -1 1 1 1 -1 -1 1 -1 -2 1 1 1 -2 -2 -4 1 3 3 2 -1 -2 -3 -1 -0 3
2 2 2 2 4 -5 20 3 -4 -4 5 -5 6 1 -0 -3 3 4 -1 -0 0 -0 -1 -4 -2 -2 -4 -2 0 2 -0 0 2 2 3 1 0 -2 -6 -5 -3 -2 -3 -1 0 0 -1 -1 -2
-1 6 -2 -4 2 1 0 -5 7 4 -2 24 17 4 9 3 -1 5 -2 -2 -1 1 -3 -3 -1 0 -0 -1 1 0 -1 1 0 1 3 2 1 1 0 -4 -5 -5 -2 -1 -2 -1 0 -3 -2
2 4 2 1 -2 -1 4 -5 1 4 12 32 6 23 8 5 4 3 1 -0 2 2 -1 -1 2 2 1 0 0 -3 -0 1 -0 -1 1 1 1 2 4 5 2 2 0 -2 -2 1 0 -4 -1
2 0 3 2 2 1 2 -5 -5 -4 -4 0 10 5 5 3 4 -0 -1 -0 3 2 -1 -1 2 1 3 2 -1 -0 -3 -2 -1 -2 -1 1 -3 -1 -2 -2 1 1 1 -1 -1 -2 -1 2 4
-1 1 5 5 -0 -2 -7 -5 -3 1 5 -6 2 30 3 5 0 -5 -2 -3 2 2 -1 -2 1 -0 3 -0 -0 0 -1 -3 -2 -1 -2 -2 -2 -2 -1 -3 -2 1 -0 -1 -2 2 0 3 2
6 5 3 5 1 3 2 -6 2 -0 -2 2 3 4 6 10 5 -3 -4 -4 2 1 -2 0 -1 -0 -2 1 -1 -1 -0 -2 -2 -1 -1 -2 -1 -1 -2 -1 -1 -2 -1 -2 1 -0 0 0 1
4 -2 -4 -4 -1 1 0 7 3 8 9 1 27 1 3 2 -4 -1 1 -1 2 -1 -3 1 -0 -1 1 1 -2 -1 -2 -0 -2 -2 -1 -2 -1 -1 -2 -2 -2 -2 -2 -1 -0 -0 1 1 1
Height
5870 5871 5871 5870 5871 5864 5860 5862 5857 5864 5863 5865 5867 5864 5863 5861 5861 5860 5853 5848 5847 5847 5847 5845 5844 5843 5843 5842 5841 5840 5839 5837 5837 5835 5834 5833 5831 5830 5828 5827 5825 5823 5821 5821 5820 5820 5821 5823 5825
5867 5868 5868 5867 5866 5859 5858 5855 5860 5859 5861 5864 5867 5866 5864 5860 5857 5852 5849 5846 5845 5843 5842 5841 5840 5839 5838 5837 5835 5834 5832 5831 5830 5829 5828 5827 5825 5822 5822 5821 5819 5817 5816 5815 5813 5813 5814 5817 5819
5862 5863 5865 5864 5859 5854 5854 5847 5851 5852 5854 5858 5862 5861 5858 5854 5851 5848 5846 5843 5841 5838 5837 5835 5834 5833 5832 5831 5829 5827 5826 5824 5823 5822 5820 5820 5818 5816 5815 5813 5812 5812 5810 5809 5807 5806 5807 5809 5811
5855 5857 5858 5858 5853 5852 5852 5844 5845 5848 5850 5852 5853 5851 5849 5846 5845 5843 5841 5838 5836 5834 5831 5830 5828 5827 5826 5824 5822 5820 5819 5817 5815 5814 5812 5811 5810 5809 5807 5806 5804 5804 5803 5802 5801 5799 5799 5800 5802
5851 5851 5851 5850 5845 5846 5844 5843 5842 5846 5848 5848 5847 5843 5841 5839 5838 5836 5834 5832 5830 5828 5826 5824 5822 5820 5819 5817 5815 5813 5811 5808 5806 5805 5803 5802 5800 5799 5798 5797 5796 5795 5795 5794 5794 5793 5792 5792 5793
5847 5848 5846 5843 5842 5837 5839 5842 5841 5841 5842 5843 5842 5840 5838 5835 5833 5831 5828 5827 5824 5822 5820 5818 5816 5814 5812 5810 5807 5805 5802 5800 5797 5794 5793 5791 5790 5789 5788 5788 5787 5787 5786 5786 5786 5785 5785 5784 5784
5846 5846 5843 5843 5838 5835 5838 5840 5839 5839 5840 5840 5836 5833 5832 5830 5828 5826 5822 5820 5818 5816 5814 5812 5810 5808 5805 5802 5800 5796 5793 5790 5788 5785 5783 5781 5780 5779 5778 5777 5777 5777 5777 5777 5777 5777 5777 5776 5776
5842 5841 5841 5838 5836 5834 5836 5835 5834 5836 5836 5834 5831 5829 5828 5826 5823 5821 5819 5815 5812 5811 5809 5807 5804 5801 5798 5795 5792 5789 5786 5782 5780 5777 5774 5771 5769 5767 5766 5766 5767 5767 5768 5768 5767 5768 5768 5768 5768
5838 5838 5835 5835 5835 5834 5835 5832 5830 5830 5830 5827 5824 5823 5822 5820 5817 5815 5812 5810 5807 5805 5803 5800 5797 5794 5791 5788 5785 5781 5777 5774 5771 5768 5765 5763 5761 5757 5756 5755 5755 5756 5756 5757 5758 5759 5759 5759 5760
5832 5832 5834 5834 5833 5833 5832 5829 5828 5827 5825 5823 5820 5819 5816 5814 5811 5809 5806 5804 5802 5800 5797 5794 5791 5788 5784 5781 5778 5774 5771 5765 5762 5759 5757 5755 5752 5748 5745 5745 5745 5745 5746 5747 5748 5749 5750 5751 5751
5828 5831 5831 5830 5830 5829 5827 5824 5823 5821 5820 5819 5816 5814 5811 5809 5806 5804 5801 5799 5796 5795 5791 5787 5784 5782 5779 5775 5771 5766 5762 5758 5754 5750 5747 5744 5743 5740 5736 5735 5735 5735 5735 5735 5736 5739 5741 5742 5743
5824 5826 5827 5826 5823 5820 5818 5817 5817 5816 5816 5813 5811 5809 5806 5803 5800 5798 5795 5792 5790 5788 5784 5781 5778 5775 5770 5765 5761 5758 5753 5749 5745 5743 5740 5735 5732 5731 5729 5727 5727 5726 5725 5725 5726 5728 5730 5732 5734
5821 5821 5820 5821 5818 5816 5813 5811 5809 5807 5804 5803 5804 5802 5800 5798 5795 5793 5789 5787 5785 5783 5778 5775 5771 5767 5762 5757 5750 5745 5742 5740 5738 5735 5732 5729 5724 5721 5721 5720 5719 5719 5718 5718 5718 5719 5720 5721 5724
5818 5817 5815 5814 5812 5811 5810 5808 5806 5803 5799 5798 5796 5795 5793 5792 5790 5786 5783 5782 5779 5776 5772 5769 5765 5760 5754 5749 5743 5738 5734 5731 5728 5725 5723 5720 5716 5712 5712 5711 5711 5711 5711 5710 5710 5710 5712 5712 5714
5812 5810 5810 5809 5808 5805 5802 5802 5800 5798 5795 5793 5791 5790 5788 5787 5784 5780 5777 5775 5772 5769 5765 5761 5757 5752 5747 5742 5737 5732 5728 5724 5720 5717 5714 5712 5709 5705 5704 5702 5701 5701 5702 5702 5702 5702 5702 5703 5705
5805 5803 5803 5802 5803 5800 5797 5796 5794 5791 5789 5787 5786 5784 5783 5781 5778 5775 5773 5770 5767 5764 5760 5756 5751 5745 5739 5734 5731 5727 5723 5719 5714 5710 5707 5703 5701 5699 5698 5695 5692 5691 5692 5692 5693 5694 5695 5695 5696
5800 5797 5795 5794 5795 5795 5792 5791 5788 5786 5784 5782 5781 5780 5779 5777 5772 5770 5766 5764 5761 5759 5755 5750 5745 5739 5735 5731 5726 5722 5717 5712 5706 5702 5698 5695 5693 5692 5690 5689 5687 5684 5682 5683 5683 5684 5684 5685 5686
5793 5792 5788 5786 5788 5787 5785 5782 5782 5782 5779 5776 5775 5773 5773 5770 5768 5764 5760 5758 5755 5752 5748 5744 5739 5735 5731 5727 5722 5718 5712 5706 5701 5696 5693 5690 5686 5684 5681 5680 5679 5676 5676 5675 5674 5673 5673 5673 5674
5787 5786 5784 5783 5780 5777 5778 5774 5774 5771 5770 5768 5767 5766 5766 5765 5763 5760 5755 5752 5749 5746 5742 5737 5733 5730 5727 5722 5718 5713 5708 5702 5696 5691 5687 5683 5681 5678 5675 5673 5672 5670 5668 5666 5664 5663 5662 5661 5661
5781 5779 5778 5776 5774 5772 5771 5768 5765 5763 5765 5763 5760 5760 5760 5759 5756 5752 5749 5748 5744 5740 5735 5731 5727 5723 5718 5713 5709 5704 5698 5693 5688 5682 5678 5675 5672 5670 5669 5667 5665 5662 5659 5658 5655 5653 5651 5650 5648
5777 5775 5772 5771 5769 5767 5766 5762 5760 5761 5759 5756 5754 5753 5753 5751 5748 5745 5743 5740 5737 5733 5729 5725 5721 5716 5712 5707 5702 5697 5691 5685 5681 5676 5671 5667 5664 5661 5658 5656 5653 5651 5649 5646 5643 5640 5638 5636 5635
5771 5770 5767 5765 5763 5763 5760 5756 5755 5754 5751 5750 5749 5747 5747 5745 5742 5739 5737 5734 5731 5726 5721 5719 5715 5711 5707 5702 5697 5692 5688 5683 5678 5673 5667 5661 5656 5651 5648 5644 5641 5637 5633 5630 5628 5625 5622 5619 5618
5769 5767 5763 5760 5758 5756 5758 5751 5750 5747 5744 5741 5740 5740 5740 5738 5737 5734 5731 5727 5724 5720 5717 5714 5709 5705 5701 5696 5691 5685 5680 5675 5670 5666 5661 5656 5650 5644 5638 5633 5628 5623 5618 5613 5609 5606 5603 5601 5600
5763 5761 5759 5756 5753 5749 5753 5748 5743 5742 5740 5733 5732 5732 5733 5732 5731 5729 5725 5722 5718 5714 5711 5707 5702 5698 5694 5689 5684 5679 5674 5669 5663 5658 5652 5646 5640 5634 5627 5621 5615 5609 5603 5598 5593 5589 5585 5582 5580
5757 5755 5752 5750 5747 5745 5745 5740 5738 5736 5732 5728 5720 5723 5725 5725 5724 5722 5719 5715 5712 5708 5704 5700 5697 5692 5688 5683 5677 5672 5666 5661 5656 5650 5644 5637 5630 5623 5615 5608 5601 5593 5587 5581 5576 5571 5566 5562 5558
5749 5747 5745 5739 5737 5736 5735 5731 5733 5731 5726 5722 5718 5719 5718 5718 5717 5714 5711 5708 5706 5703 5699 5695 5691 5686 5681 5676 5670 5665 5659 5653 5647 5640 5632 5625 5618 5611 5603 5595 5587 5578 5570 5563 5556 5551 5545 5538 5534
5740 5738 5736 5731 5728 5725 5725 5725 5725 5724 5722 5720 5720 5716 5714 5713 5711 5708 5705 5703 5700 5696 5692 5687 5684 5679 5674 5669 5663 5657 5650 5644 5637 5629 5621 5613 5604 5596 5587 5579 5570 5561 5552 5544 5536 5528 5520 5512 5507
5732 5731 5726 5723 5718 5717 5716 5716 5714 5715 5715 5714 5711 5710 5710 5707 5706 5702 5699 5696 5694 5689 5685 5680 5677 5672 5667 5662 5656 5649 5643 5635 5627 5618 5609 5600 5591 5582 5573 5563 5553 5544 5534 5523 5513 5502 5493 5487 5480
5726 5720 5718 5716 5714 5710 5708 5706 5707 5707 5707 5708 5706 5703 5702 5701 5698 5695 5693 5690 5687 5682 5678 5674 5670 5665 5660 5654 5647 5640 5633 5625 5616 5608 5598 5589 5579 5569 5559 5548 5536 5525 5513 5500 5489 5478 5469 5463 5458
5711 5709 5708 5708 5706 5704 5702 5698 5700 5701 5700 5701 5698 5698 5697 5695 5692 5689 5686 5683 5679 5675 5670 5666 5662 5658 5652 5646 5639 5632 5624 5616 5606 5597 5588 5578 5567 5556 5544 5531 5518 5505 5491 5478 5467 5459 5450 5443 5437